VIV1015 MMUN-MMMX

Flight info

Callsign VIV1015
Flight time 1h 53m
Altitude 34000
Route UDGUV2A UDGUV UT78 MEDOS UT20 UBVOV UT101 ENAGA ENAGA3A
Aircraft A320/M-SDE3FGHIRWY/LB1

Departure

Time 2026-05-04 17:19
Airport Cancún International Airport (MMUN)

Arrival

Time 2026-05-04 19:12
Airport Mexico City Benito Juárez International Airport (MMMX)
Time Latitude Longitude Altitude Speed Heading
2026-05-04 16:39 21.04670 -86.88364 24 ft 0 kts 122°
2026-05-04 17:08 21.04670 -86.88365 24 ft 2 kts 122°
2026-05-04 17:08 21.04685 -86.88387 25 ft 4 kts 131°
2026-05-04 17:09 21.04704 -86.88406 24 ft 4 kts 154°
2026-05-04 17:09 21.04726 -86.88410 26 ft 3 kts 209°
2026-05-04 17:09 21.04729 -86.88409 26 ft 0 kts 212°
2026-05-04 17:14 21.04624 -86.88510 24 ft 12 kts 213°
2026-05-04 17:14 21.04546 -86.88565 24 ft 15 kts 214°
2026-05-04 17:14 21.04485 -86.88709 26 ft 14 kts 302°
2026-05-04 17:15 21.04542 -86.88802 25 ft 16 kts 303°
2026-05-04 17:15 21.04611 -86.89025 24 ft 13 kts 219°
2026-05-04 17:16 21.04607 -86.89028 28 ft 0 kts 217°
2026-05-04 17:16 21.04593 -86.89039 24 ft 6 kts 216°
2026-05-04 17:17 21.04539 -86.89071 23 ft 12 kts 187°
2026-05-04 17:17 21.04378 -86.88850 24 ft 60 kts 124°
2026-05-04 17:18 21.04027 -86.88290 22 ft 119 kts 124°
2026-05-04 17:18 21.02849 -86.86395 565 ft 166 kts 121°
2026-05-04 17:19 21.01510 -86.84371 1679 ft 182 kts 150°
2026-05-04 17:19 20.98858 -86.84825 2268 ft 223 kts 210°
2026-05-04 17:20 20.96093 -86.86802 3003 ft 247 kts 215°
2026-05-04 17:20 20.93680 -86.89434 2991 ft 263 kts 250°
2026-05-04 17:20 20.93318 -86.91357 2990 ft 266 kts 262°
2026-05-04 17:21 20.92782 -86.95275 2990 ft 266 kts 261°
2026-05-04 17:21 20.92209 -86.99199 2987 ft 267 kts 261°
2026-05-04 17:22 20.91920 -87.01183 3313 ft 274 kts 261°
2026-05-04 17:22 20.91630 -87.03178 4357 ft 271 kts 261°
2026-05-04 17:23 20.90764 -87.09167 7028 ft 276 kts 261°
2026-05-04 17:23 20.90470 -87.11209 7688 ft 281 kts 262°
2026-05-04 17:23 20.89872 -87.15336 7975 ft 281 kts 261°
2026-05-04 17:24 20.89570 -87.17401 7981 ft 281 kts 261°
2026-05-04 17:24 20.88666 -87.23594 7979 ft 281 kts 261°
2026-05-04 17:25 20.88365 -87.25652 7979 ft 280 kts 261°
2026-05-04 17:25 20.87764 -87.29766 7980 ft 280 kts 261°
2026-05-04 17:26 20.87162 -87.33890 7980 ft 281 kts 261°
2026-05-04 17:26 20.86239 -87.40151 9358 ft 286 kts 261°
2026-05-04 17:27 20.85609 -87.44427 10413 ft 310 kts 262°
2026-05-04 17:27 20.84917 -87.49143 11405 ft 327 kts 261°
2026-05-04 17:28 20.84202 -87.53973 12744 ft 331 kts 261°
2026-05-04 17:29 20.83111 -87.61348 14557 ft 339 kts 261°
2026-05-04 17:29 20.81989 -87.68903 16139 ft 347 kts 261°
2026-05-04 17:30 20.80840 -87.76646 17703 ft 356 kts 263°
2026-05-04 17:31 20.80796 -87.82029 18376 ft 370 kts 271°
2026-05-04 17:31 20.80998 -87.90369 19704 ft 377 kts 272°
2026-05-04 17:32 20.81122 -87.95960 20634 ft 380 kts 272°
2026-05-04 17:33 20.81300 -88.04479 22009 ft 385 kts 272°
2026-05-04 17:33 20.81359 -88.07337 22451 ft 386 kts 272°
2026-05-04 17:34 20.81547 -88.16000 23735 ft 391 kts 273°
2026-05-04 17:34 20.81604 -88.18916 24088 ft 393 kts 273°
2026-05-04 17:35 20.81771 -88.27731 25143 ft 398 kts 273°
2026-05-04 17:35 20.81886 -88.33667 25847 ft 401 kts 274°
2026-05-04 17:35 20.81943 -88.36659 26196 ft 403 kts 274°
2026-05-04 17:36 20.81999 -88.39664 26535 ft 405 kts 274°
2026-05-04 17:36 20.82055 -88.42672 26868 ft 407 kts 274°
2026-05-04 17:36 20.82116 -88.45702 27200 ft 408 kts 274°
2026-05-04 17:36 20.82176 -88.48747 27529 ft 410 kts 274°
2026-05-04 17:37 20.82232 -88.51807 27864 ft 412 kts 274°
2026-05-04 17:37 20.82286 -88.54883 28215 ft 414 kts 274°
2026-05-04 17:37 20.82339 -88.57966 28559 ft 416 kts 274°
2026-05-04 17:37 20.82393 -88.61071 28891 ft 418 kts 274°
2026-05-04 17:38 20.82446 -88.64140 29230 ft 420 kts 275°
2026-05-04 17:38 20.82501 -88.67314 29580 ft 422 kts 275°
2026-05-04 17:38 20.82554 -88.70410 29908 ft 424 kts 275°
2026-05-04 17:38 20.82609 -88.73605 30221 ft 426 kts 275°
2026-05-04 17:39 20.82712 -88.79926 31020 ft 424 kts 275°
2026-05-04 17:39 20.82762 -88.83064 31446 ft 422 kts 275°
2026-05-04 17:39 20.82811 -88.86160 31867 ft 421 kts 275°
2026-05-04 17:40 20.82863 -88.89340 32236 ft 422 kts 275°
2026-05-04 17:40 20.82915 -88.92430 32629 ft 422 kts 275°
2026-05-04 17:40 20.82966 -88.95568 33054 ft 421 kts 275°
2026-05-04 17:40 20.83014 -88.98686 33479 ft 420 kts 275°
2026-05-04 17:41 20.83058 -89.01814 33884 ft 420 kts 275°
2026-05-04 17:41 20.83104 -89.04936 33993 ft 421 kts 275°
2026-05-04 17:41 20.83181 -89.10130 34008 ft 421 kts 275°
2026-05-04 17:42 20.83276 -89.16386 34008 ft 421 kts 275°
2026-05-04 17:42 20.83363 -89.22642 34008 ft 421 kts 275°
2026-05-04 17:43 20.83385 -89.28934 34007 ft 426 kts 274°
2026-05-04 17:43 20.83337 -89.35264 34008 ft 427 kts 274°
2026-05-04 17:44 20.83283 -89.41614 34012 ft 427 kts 274°
2026-05-04 17:44 20.83249 -89.47971 34020 ft 428 kts 274°
2026-05-04 17:45 20.83219 -89.54329 34019 ft 427 kts 274°
2026-05-04 17:45 20.83187 -89.60679 34021 ft 427 kts 274°
2026-05-04 17:46 20.83152 -89.67033 34016 ft 427 kts 274°
2026-05-04 17:46 20.83120 -89.73335 34011 ft 427 kts 274°
2026-05-04 17:47 20.83082 -89.79682 34007 ft 427 kts 274°
2026-05-04 17:47 20.83034 -89.86027 34008 ft 427 kts 274°
2026-05-04 17:48 20.82988 -89.92379 34003 ft 427 kts 274°
2026-05-04 17:48 20.82939 -89.98730 34003 ft 427 kts 274°
2026-05-04 17:49 20.82888 -90.05098 33989 ft 428 kts 274°
2026-05-04 17:49 20.82828 -90.11472 33989 ft 429 kts 274°
2026-05-04 17:50 20.82723 -90.17864 33994 ft 431 kts 274°
2026-05-04 17:50 20.82601 -90.24270 33997 ft 431 kts 274°
2026-05-04 17:51 20.82484 -90.30682 34005 ft 432 kts 274°
2026-05-04 17:51 20.82371 -90.37099 34007 ft 432 kts 274°
2026-05-04 17:52 20.82261 -90.43519 34003 ft 432 kts 273°
2026-05-04 17:52 20.82149 -90.49940 34007 ft 433 kts 273°
2026-05-04 17:53 20.82027 -90.56345 34008 ft 433 kts 273°
2026-05-04 17:53 20.81900 -90.62786 34020 ft 434 kts 273°
2026-05-04 17:54 20.81777 -90.69221 34021 ft 434 kts 273°
2026-05-04 17:54 20.81654 -90.75667 34026 ft 434 kts 273°
2026-05-04 17:55 20.81530 -90.82117 34032 ft 434 kts 272°
2026-05-04 17:55 20.81395 -90.88578 34030 ft 434 kts 272°
2026-05-04 17:56 20.81257 -90.95033 34037 ft 434 kts 272°
2026-05-04 17:56 20.81119 -91.01491 34044 ft 435 kts 272°
2026-05-04 17:57 20.80982 -91.07906 34047 ft 435 kts 272°
2026-05-04 17:57 20.80838 -91.14364 34041 ft 435 kts 272°
2026-05-04 17:58 20.80688 -91.20825 34044 ft 435 kts 272°
2026-05-04 17:58 20.80537 -91.27287 34040 ft 435 kts 272°
2026-05-04 17:59 20.80387 -91.33748 34044 ft 435 kts 272°
2026-05-04 18:00 20.80169 -91.43442 34045 ft 435 kts 272°
2026-05-04 18:00 20.80022 -91.49897 34035 ft 435 kts 272°
2026-05-04 18:01 20.79854 -91.56355 34034 ft 435 kts 271°
2026-05-04 18:01 20.79686 -91.62819 34034 ft 435 kts 271°
2026-05-04 18:02 20.79441 -91.72506 34037 ft 435 kts 271°
2026-05-04 18:02 20.79276 -91.78963 34038 ft 435 kts 271°
2026-05-04 18:03 20.79111 -91.85423 34036 ft 435 kts 271°
2026-05-04 18:03 20.78941 -91.91879 34032 ft 435 kts 271°
2026-05-04 18:04 20.78764 -91.98345 34034 ft 434 kts 271°
2026-05-04 18:05 20.78507 -92.08014 34037 ft 434 kts 271°
2026-05-04 18:05 20.78329 -92.14423 34037 ft 434 kts 271°
2026-05-04 18:06 20.78052 -92.24100 34037 ft 434 kts 271°
2026-05-04 18:06 20.77858 -92.30541 34036 ft 434 kts 271°
2026-05-04 18:07 20.77665 -92.36983 34036 ft 434 kts 271°
2026-05-04 18:07 20.77476 -92.43434 34033 ft 434 kts 271°
2026-05-04 18:08 20.77281 -92.49877 34032 ft 434 kts 271°
2026-05-04 18:08 20.77094 -92.56330 34035 ft 434 kts 271°
2026-05-04 18:09 20.76698 -92.69177 34027 ft 435 kts 271°
2026-05-04 18:10 20.76484 -92.75629 34029 ft 435 kts 271°
2026-05-04 18:10 20.76280 -92.82095 34034 ft 435 kts 271°
2026-05-04 18:11 20.76071 -92.88555 34037 ft 435 kts 271°
2026-05-04 18:11 20.75858 -92.95016 34038 ft 435 kts 271°
2026-05-04 18:12 20.75653 -93.01477 34040 ft 435 kts 271°
2026-05-04 18:12 20.75440 -93.07949 34035 ft 435 kts 271°
2026-05-04 18:13 20.75222 -93.14413 34033 ft 436 kts 271°
2026-05-04 18:14 20.74885 -93.24076 34033 ft 436 kts 271°
2026-05-04 18:14 20.74656 -93.30548 34033 ft 436 kts 271°
2026-05-04 18:15 20.74253 -93.43482 34027 ft 435 kts 272°
2026-05-04 18:16 20.74281 -93.49931 34029 ft 434 kts 274°
2026-05-04 18:16 20.74384 -93.56377 34029 ft 434 kts 274°
2026-05-04 18:17 20.74452 -93.66063 34031 ft 435 kts 273°
2026-05-04 18:18 20.74476 -93.75759 34028 ft 435 kts 273°
2026-05-04 18:18 20.74499 -93.82225 34026 ft 435 kts 274°
2026-05-04 18:19 20.74532 -93.91929 34014 ft 436 kts 274°
2026-05-04 18:19 20.74545 -93.98385 34017 ft 437 kts 274°
2026-05-04 18:20 20.74561 -94.04879 34023 ft 438 kts 274°
2026-05-04 18:20 20.74571 -94.11385 34027 ft 438 kts 273°
2026-05-04 18:21 20.74578 -94.17887 34036 ft 438 kts 273°
2026-05-04 18:21 20.74587 -94.24389 34029 ft 438 kts 274°
2026-05-04 18:22 20.74597 -94.30890 34033 ft 438 kts 274°
2026-05-04 18:22 20.74603 -94.37405 34033 ft 438 kts 274°
2026-05-04 18:23 20.74612 -94.43907 34033 ft 438 kts 274°
2026-05-04 18:23 20.74609 -94.50425 34035 ft 438 kts 273°
2026-05-04 18:24 20.74594 -94.56942 34031 ft 438 kts 273°
2026-05-04 18:24 20.74580 -94.63453 34022 ft 439 kts 274°
2026-05-04 18:25 20.74574 -94.69984 34016 ft 440 kts 274°
2026-05-04 18:25 20.74565 -94.76528 34013 ft 441 kts 274°
2026-05-04 18:26 20.74553 -94.83073 34011 ft 441 kts 274°
2026-05-04 18:26 20.74539 -94.89622 34013 ft 441 kts 274°
2026-05-04 18:27 20.74523 -94.96175 34009 ft 441 kts 274°
2026-05-04 18:27 20.74006 -95.02721 34009 ft 447 kts 263°
2026-05-04 18:28 20.72795 -95.09231 34002 ft 447 kts 263°
2026-05-04 18:28 20.71603 -95.15741 34005 ft 447 kts 263°
2026-05-04 18:29 20.70416 -95.22211 34010 ft 447 kts 263°
2026-05-04 18:29 20.69213 -95.28730 34012 ft 447 kts 263°
2026-05-04 18:30 20.67408 -95.38485 34008 ft 447 kts 263°
2026-05-04 18:31 20.66199 -95.44993 34010 ft 447 kts 263°
2026-05-04 18:31 20.64979 -95.51512 34007 ft 447 kts 263°
2026-05-04 18:32 20.63760 -95.58015 34008 ft 447 kts 263°
2026-05-04 18:32 20.62744 -95.63432 34008 ft 447 kts 263°
2026-05-04 18:33 20.61529 -95.69944 34007 ft 448 kts 263°
2026-05-04 18:33 20.60301 -95.76466 34005 ft 448 kts 263°
2026-05-04 18:34 20.59069 -95.82985 34001 ft 448 kts 263°
2026-05-04 18:34 20.57843 -95.89510 34001 ft 449 kts 263°
2026-05-04 18:35 20.56618 -95.96040 34007 ft 449 kts 263°
2026-05-04 18:35 20.55385 -96.02565 34012 ft 449 kts 262°
2026-05-04 18:36 20.54137 -96.09090 34005 ft 449 kts 262°
2026-05-04 18:36 20.52881 -96.15619 34005 ft 449 kts 262°
2026-05-04 18:37 20.51633 -96.22160 34005 ft 449 kts 262°
2026-05-04 18:37 20.50391 -96.28691 34007 ft 450 kts 262°
2026-05-04 18:38 20.49142 -96.35218 34008 ft 450 kts 262°
2026-05-04 18:38 20.47886 -96.41758 34008 ft 450 kts 262°
2026-05-04 18:39 20.46622 -96.48292 34007 ft 450 kts 262°
2026-05-04 18:39 20.45369 -96.54777 34014 ft 449 kts 262°
2026-05-04 18:40 20.44105 -96.61340 34017 ft 449 kts 262°
2026-05-04 18:40 20.42845 -96.67866 34017 ft 449 kts 262°
2026-05-04 18:41 20.41581 -96.74372 34012 ft 448 kts 262°
2026-05-04 18:41 20.40317 -96.80836 34010 ft 448 kts 262°
2026-05-04 18:42 20.38984 -96.87327 33997 ft 449 kts 259°
2026-05-04 18:42 20.37267 -96.93737 34001 ft 450 kts 256°
2026-05-04 18:43 20.35381 -97.00104 33998 ft 450 kts 256°
2026-05-04 18:43 20.33547 -97.06469 33997 ft 450 kts 256°
2026-05-04 18:44 20.31777 -97.12860 33993 ft 450 kts 257°
2026-05-04 18:44 20.30015 -97.19267 33990 ft 450 kts 257°
2026-05-04 18:45 20.28237 -97.25666 33990 ft 451 kts 256°
2026-05-04 18:45 20.26447 -97.32068 34001 ft 451 kts 256°
2026-05-04 18:46 20.25536 -97.35320 33997 ft 451 kts 256°
2026-05-04 18:46 20.23741 -97.41725 34001 ft 451 kts 256°
2026-05-04 18:47 20.21948 -97.48130 34003 ft 451 kts 256°
2026-05-04 18:47 20.20152 -97.54530 34003 ft 451 kts 256°
2026-05-04 18:48 20.18360 -97.60929 34007 ft 451 kts 256°
2026-05-04 18:48 20.16558 -97.67315 34040 ft 450 kts 256°
2026-05-04 18:49 20.14752 -97.73702 34041 ft 450 kts 256°
2026-05-04 18:49 20.12954 -97.80070 34051 ft 449 kts 256°
2026-05-04 18:50 20.11154 -97.86440 34049 ft 449 kts 256°
2026-05-04 18:50 20.09356 -97.92799 34060 ft 449 kts 256°
2026-05-04 18:51 20.07548 -97.99153 34029 ft 450 kts 256°
2026-05-04 18:51 20.05734 -98.05537 34032 ft 451 kts 256°
2026-05-04 18:52 20.03920 -98.11921 33797 ft 448 kts 255°
2026-05-04 18:52 20.03016 -98.15083 33126 ft 448 kts 255°
2026-05-04 18:52 20.02115 -98.18252 32426 ft 449 kts 256°
2026-05-04 18:52 20.01306 -98.21446 31887 ft 446 kts 258°
2026-05-04 18:53 20.00621 -98.24645 31367 ft 443 kts 260°
2026-05-04 18:53 20.00015 -98.27844 30841 ft 440 kts 261°
2026-05-04 18:53 19.99440 -98.31042 30319 ft 438 kts 261°
2026-05-04 18:53 19.98865 -98.34210 29752 ft 437 kts 261°
2026-05-04 18:54 19.98278 -98.37330 29208 ft 434 kts 261°
2026-05-04 18:54 19.97662 -98.40453 28767 ft 429 kts 260°
2026-05-04 18:54 19.97025 -98.43587 28668 ft 430 kts 260°
2026-05-04 18:54 19.96384 -98.46695 28526 ft 431 kts 260°
2026-05-04 18:55 19.95750 -98.49770 28362 ft 430 kts 260°
2026-05-04 18:55 19.94477 -98.55970 28022 ft 428 kts 259°
2026-05-04 18:55 19.93849 -98.59057 27855 ft 427 kts 260°
2026-05-04 18:56 19.93233 -98.62095 27692 ft 426 kts 260°
2026-05-04 18:56 19.92602 -98.65208 27517 ft 425 kts 260°
2026-05-04 18:56 19.91975 -98.68281 27356 ft 425 kts 260°
2026-05-04 18:56 19.91348 -98.71344 27221 ft 424 kts 260°
2026-05-04 18:57 19.90771 -98.74408 27090 ft 422 kts 264°
2026-05-04 18:57 19.90414 -98.77501 26473 ft 424 kts 265°
2026-05-04 18:57 19.90073 -98.80587 25895 ft 415 kts 265°
2026-05-04 18:57 19.89740 -98.83625 25348 ft 411 kts 265°
2026-05-04 18:58 19.89413 -98.86620 24812 ft 407 kts 265°
2026-05-04 18:58 19.89116 -98.89587 24273 ft 402 kts 269°
2026-05-04 18:58 19.89186 -98.92543 23707 ft 398 kts 276°
2026-05-04 18:58 19.89391 -98.95457 23119 ft 395 kts 276°
2026-05-04 18:59 19.89593 -98.98364 22583 ft 394 kts 276°
2026-05-04 18:59 19.89790 -99.01267 22023 ft 394 kts 275°
2026-05-04 18:59 19.89982 -99.04161 21456 ft 393 kts 276°
2026-05-04 18:59 19.90174 -99.07064 20905 ft 392 kts 276°
2026-05-04 19:00 19.90365 -99.09947 20334 ft 392 kts 276°
2026-05-04 19:00 19.90555 -99.12831 19770 ft 391 kts 276°
2026-05-04 19:00 19.90746 -99.15711 19181 ft 390 kts 276°
2026-05-04 19:00 19.90934 -99.18584 18676 ft 388 kts 276°
2026-05-04 19:01 19.91117 -99.21395 18539 ft 374 kts 276°
2026-05-04 19:01 19.91294 -99.24098 18397 ft 361 kts 276°
2026-05-04 19:01 19.91283 -99.26711 17926 ft 361 kts 263°
2026-05-04 19:01 19.90507 -99.29253 17304 ft 365 kts 242°
2026-05-04 19:02 19.88947 -99.31412 16817 ft 365 kts 222°
2026-05-04 19:02 19.86870 -99.32863 16396 ft 362 kts 203°
2026-05-04 19:02 19.84425 -99.33536 15946 ft 358 kts 184°
2026-05-04 19:02 19.81982 -99.33360 15527 ft 355 kts 169°
2026-05-04 19:03 19.79557 -99.32894 15119 ft 353 kts 169°
2026-05-04 19:03 19.77152 -99.32423 14741 ft 350 kts 169°
2026-05-04 19:03 19.74764 -99.31953 14512 ft 349 kts 169°
2026-05-04 19:03 19.72383 -99.31488 14295 ft 346 kts 169°
2026-05-04 19:04 19.70043 -99.31036 14069 ft 338 kts 170°
2026-05-04 19:04 19.67752 -99.30597 13789 ft 331 kts 170°
2026-05-04 19:04 19.65505 -99.30170 13558 ft 325 kts 170°
2026-05-04 19:04 19.63300 -99.29750 13327 ft 319 kts 170°
2026-05-04 19:05 19.61154 -99.29329 13094 ft 305 kts 167°
2026-05-04 19:05 19.59229 -99.28543 12866 ft 293 kts 149°
2026-05-04 19:05 19.57575 -99.27316 12636 ft 290 kts 143°
2026-05-04 19:05 19.55946 -99.26042 12425 ft 291 kts 143°
2026-05-04 19:06 19.54322 -99.24782 12230 ft 288 kts 144°
2026-05-04 19:06 19.52566 -99.23817 12112 ft 283 kts 162°
2026-05-04 19:06 19.50610 -99.23471 11835 ft 291 kts 178°
2026-05-04 19:06 19.48551 -99.23430 11303 ft 300 kts 179°
2026-05-04 19:07 19.46432 -99.23403 10742 ft 309 kts 179°
2026-05-04 19:07 19.44266 -99.23377 10317 ft 307 kts 178°
2026-05-04 19:07 19.42204 -99.23348 10250 ft 285 kts 179°
2026-05-04 19:07 19.40297 -99.23257 10167 ft 265 kts 167°
2026-05-04 19:08 19.38642 -99.22518 9694 ft 256 kts 138°
2026-05-04 19:08 19.37614 -99.21144 9675 ft 228 kts 112°
2026-05-04 19:08 19.37239 -99.19598 9601 ft 213 kts 90°
2026-05-04 19:08 19.37426 -99.18150 9450 ft 187 kts 69°
2026-05-04 19:09 19.37974 -99.17004 9327 ft 167 kts 58°
2026-05-04 19:09 19.38556 -99.15969 9213 ft 162 kts 58°
2026-05-04 19:09 19.39129 -99.14949 9089 ft 161 kts 58°
2026-05-04 19:09 19.39699 -99.13934 8911 ft 160 kts 58°
2026-05-04 19:10 19.40268 -99.12921 8684 ft 160 kts 58°
2026-05-04 19:10 19.40834 -99.11915 8373 ft 158 kts 58°
2026-05-04 19:10 19.41391 -99.10922 8046 ft 156 kts 59°
2026-05-04 19:10 19.41945 -99.09934 7770 ft 156 kts 59°
2026-05-04 19:11 19.42501 -99.08944 7510 ft 157 kts 59°
2026-05-04 19:11 19.43057 -99.07953 7326 ft 156 kts 59°
2026-05-04 19:11 19.43562 -99.07049 7302 ft 120 kts 59°
2026-05-04 19:11 19.43900 -99.06446 7303 ft 71 kts 59°
2026-05-04 19:12 19.44065 -99.06149 7301 ft 29 kts 59°
2026-05-04 19:12 19.44293 -99.05815 7303 ft 9 kts 36°
2026-05-04 19:12 19.44331 -99.05818 7303 ft 7 kts 355°
2026-05-04 19:13 19.44383 -99.05818 7303 ft 8 kts
2026-05-04 19:13 19.44414 -99.05815 7303 ft 0 kts
2026-05-04 19:13 19.44421 -99.05814 7303 ft 2 kts
2026-05-04 19:13 19.44436 -99.05813 7303 ft 3 kts
2026-05-04 19:14 19.44461 -99.05811 7303 ft 0 kts
2026-05-04 19:14 19.44464 -99.05811 7303 ft 0 kts
2026-05-04 19:14 19.44500 -99.05812 7303 ft 11 kts 352°
2026-05-04 19:15 19.44536 -99.05826 7302 ft 9 kts 325°
2026-05-04 19:15 19.44517 -99.05923 7302 ft 20 kts 239°
2026-05-04 19:15 19.44445 -99.06051 7302 ft 20 kts 239°
2026-05-04 19:15 19.44390 -99.06186 7302 ft 17 kts 270°
2026-05-04 19:16 19.44420 -99.06295 7303 ft 16 kts 274°
2026-05-04 19:16 19.44377 -99.06402 7303 ft 16 kts 239°
2026-05-04 19:16 19.44317 -99.06509 7303 ft 17 kts 239°
2026-05-04 19:16 19.44253 -99.06623 7303 ft 18 kts 239°
2026-05-04 19:17 19.44187 -99.06740 7303 ft 19 kts 239°
2026-05-04 19:17 19.44116 -99.06865 7303 ft 20 kts 239°
2026-05-04 19:17 19.44046 -99.06991 7303 ft 20 kts 240°
2026-05-04 19:17 19.43974 -99.07120 7303 ft 21 kts 239°
2026-05-04 19:18 19.43924 -99.07208 7303 ft 20 kts 239°
2026-05-04 19:18 19.43858 -99.07326 7303 ft 19 kts 239°
2026-05-04 19:18 19.43790 -99.07448 7303 ft 20 kts 239°
2026-05-04 19:18 19.43701 -99.07606 7303 ft 17 kts 239°
2026-05-04 19:19 19.43646 -99.07702 7303 ft 11 kts 239°
2026-05-04 19:19 19.43619 -99.07751 7303 ft 12 kts 240°
2026-05-04 19:19 19.43574 -99.07833 7303 ft 14 kts 239°
2026-05-04 19:19 19.43522 -99.07924 7303 ft 15 kts 239°
2026-05-04 19:20 19.43466 -99.08023 7303 ft 16 kts 239°
2026-05-04 19:20 19.43407 -99.08130 7303 ft 17 kts 240°
2026-05-04 19:20 19.43346 -99.08241 7303 ft 14 kts 238°
2026-05-04 19:20 19.43339 -99.08266 7303 ft 1 kts 316°
2026-05-04 19:21 19.43363 -99.08275 7303 ft 6 kts 338°
2026-05-04 19:21 19.43399 -99.08296 7303 ft 3 kts 327°
2026-05-04 19:21 19.43406 -99.08301 7303 ft 0 kts 327°